CW8078 Weather Reports


Display with metric or nautical units.
time (UTC)temp
F
wind
direction
speed
MPH
gust
MPH
rain 1hr
in
rain 24hr
in
rain mn
in
humidity
%
barometer
mb
20260508080802 48 158 0.0 0.0 0.00 0.00 0.00 86 1010.3
20260508080302 48 158 0.0 0.0 0.00 0.00 0.00 86 1010.3
20260508074802 48 158 0.0 0.0 0.00 0.00 0.00 86 1010.3
20260508074302 48 158 0.0 0.0 0.00 0.00 0.00 86 1010.3
20260508073802 48 158 0.0 0.0 0.00 0.00 0.00 86 1010.4
20260508073302 48 158 0.0 0.0 0.00 0.00 0.00 86 1010.5
20260508071802 48 158 0.0 0.0 0.00 0.00 0.00 86 1010.6
20260508071302 48 158 0.0 0.0 0.00 0.00 0.00 87 1010.7
20260508070802 48 158 0.0 0.0 0.00 0.00 0.00 87 1010.8
20260508070302 48 158 0.0 0.0 0.00 0.00 0.00 87 1010.8
20260508064802 48 158 0.0 0.0 0.00 0.00 0.00 86 1010.8
20260508064302 48 158 0.0 0.0 0.00 0.00 0.00 86 1010.9
20260508063802 48 158 0.0 0.0 0.00 0.00 0.00 86 1011.0
20260508063302 48 158 0.0 0.0 0.00 0.00 0.00 86 1011.1
20260508061302 49 158 0.0 0.0 0.00 0.00 0.00 86 1011.3
20260508060802 49 158 0.0 0.0 0.00 0.00 0.00 86 1011.4
20260508060302 49 158 0.0 0.0 0.00 0.00 0.00 85 1011.4
20260508054802 49 158 0.0 0.0 0.00 0.00 0.00 84 1011.4
20260508054302 49 158 0.0 0.0 0.00 0.00 0.00 84 1011.5
20260508053302 49 158 0.0 0.0 0.00 0.00 0.00 83 1011.6
20260508051803 50 158 0.0 0.0 0.00 0.00 0.00 82 1011.6
20260508051302 50 158 0.0 0.0 0.00 0.00 0.00 81 1011.6
20260508050802 51 158 0.0 0.0 0.00 0.00 0.00 80 1011.7
20260508050303 51 158 0.0 0.0 0.00 0.00 0.00 80 1011.7
20260508044803 52 158 0.0 0.0 0.00 0.00 0.00 79 1011.8
20260508043803 52 158 0.0 0.0 0.00 0.00 0.00 77 1011.8
20260508043303 53 158 0.0 0.0 0.00 0.00 0.00 76 1011.8
20260508041803 53 158 0.0 0.0 0.00 0.00 0.00 76 1011.9
20260508041303 54 158 0.0 0.0 0.00 0.00 0.00 76 1011.9
20260508040802 54 158 0.0 0.0 0.00 0.00 0.00 75 1011.8
20260508040303 54 158 0.0 0.0 0.00 0.00 0.00 75 1011.9
20260508034802 53 158 0.0 0.0 0.00 0.00 0.00 77 1011.9
20260508034302 53 158 0.0 0.0 0.00 0.00 0.00 78 1011.8
20260508033803 52 158 0.0 0.0 0.00 0.00 0.00 78 1011.8
20260508033303 52 158 0.0 0.0 0.00 0.00 0.00 79 1011.8
20260508031802 52 158 0.0 0.0 0.00 0.00 0.00 80 1011.8
20260508031302 52 158 0.0 0.0 0.00 0.00 0.00 80 1011.8
20260508030802 52 158 0.0 0.0 0.00 0.00 0.00 78 1011.8
20260508030302 52 158 0.0 0.0 0.00 0.00 0.00 78 1011.8
20260508024803 53 158 0.0 0.0 0.00 0.00 0.00 77 1011.7
20260508024303 53 158 0.0 0.0 0.00 0.00 0.00 78 1011.7
20260508023802 53 158 0.0 0.0 0.00 0.00 0.00 77 1011.7
20260508023303 53 158 0.0 0.0 0.00 0.00 0.00 77 1011.7
20260508021302 54 158 0.0 0.0 0.00 0.00 0.00 74 1011.6
20260508020802 54 158 0.0 0.0 0.00 0.00 0.00 72 1011.6
20260508020303 55 158 0.0 0.0 0.00 0.00 0.00 73 1011.5
20260508014802 56 158 0.0 0.0 0.00 0.00 0.00 69 1011.4
20260508014302 56 158 0.0 0.0 0.00 0.00 0.00 68 1011.4
20260508013803 57 158 0.0 0.0 0.00 0.00 0.00 67 1011.4
20260508013303 57 158 0.0 0.0 0.00 0.00 0.00 67 1011.4
20260508011802 58 158 0.0 0.0 0.00 0.00 0.00 65 1011.3
20260508011302 58 158 0.0 0.0 0.00 0.00 0.00 65 1011.4
20260508010803 59 158 0.0 0.0 0.00 0.00 0.00 65 1011.4
20260508010303 59 158 0.0 0.0 0.00 0.00 0.00 63 1011.3
20260508004802 60 158 0.0 0.0 0.00 0.00 0.00 60 1011.1
20260508004302 61 158 0.0 0.0 0.00 0.00 0.00 59 1011.1
20260508003803 61 158 0.0 0.0 0.00 0.00 0.00 60 1011.1
20260508003303 62 158 0.0 1.0 0.00 0.00 0.00 58 1011.0
20260508001802 63 158 0.0 0.0 0.00 0.00 0.00 56 1010.9
20260508000803 64 158 0.0 0.0 0.00 0.00 0.00 53 1010.8
20260508000304 64 158 0.0 1.0 0.00 0.00 0.00 51 1010.8
20260507233803 66 201 0.0 0.0 0.00 0.00 0.00 47 1010.8
20260507233302 66 201 0.0 3.0 0.00 0.00 0.00 48 1010.9
20260507231802 66 201 0.0 1.0 0.00 0.00 0.00 49 1010.9
20260507231303 66 163 0.0 0.0 0.00 0.00 0.00 47 1010.9
20260507230302 65 225 0.0 1.0 0.00 0.00 0.00 50 1011.1
20260507224802 66 225 0.0 0.0 0.00 0.00 0.00 48 1011.3
20260507224302 66 216 0.0 0.0 0.00 0.00 0.00 46 1011.1
20260507223802 66 136 0.0 0.0 0.00 0.00 0.00 45 1011.3
20260507223303 66 198 0.0 5.0 0.00 0.00 0.00 46 1011.3
20260507221803 67 204 0.0 0.0 0.00 0.00 0.00 47 1011.4
20260507221303 66 194 0.0 0.0 0.00 0.00 0.00 47 1011.5
20260507220303 67 165 0.0 5.0 0.00 0.00 0.00 46 1011.4
20260507214802 66 180 0.0 0.0 0.00 0.00 0.00 47 1011.5
20260507213803 66 217 0.0 2.0 0.00 0.00 0.00 45 1011.5
20260507213303 66 212 0.0 2.0 0.00 0.00 0.00 46 1011.5
20260507211802 67 205 0.0 0.0 0.00 0.00 0.00 47 1011.6
20260507211303 67 194 0.0 0.0 0.00 0.00 0.00 48 1011.8
20260507210802 67 182 1.0 3.0 0.00 0.00 0.00 46 1011.8
20260507210303 66 204 0.0 2.0 0.00 0.00 0.00 46 1011.8
20260507204802 66 218 0.0 0.0 0.00 0.00 0.00 47 1012.2
20260507204302 66 211 0.0 3.0 0.00 0.00 0.00 46 1012.2
20260507203303 66 207 0.0 3.0 0.00 0.00 0.00 46 1012.4
20260507201302 65 202 0.0 0.0 0.00 0.00 0.00 50 1012.8
20260507200803 65 161 0.0 2.0 0.00 0.00 0.00 48 1012.8
20260507200303 65 209 0.0 0.0 0.00 0.00 0.00 48 1012.9
20260507194803 65 194 0.0 0.0 0.00 0.00 0.00 46 1013.2
20260507193804 66 209 0.0 0.0 0.00 0.00 0.00 46 1013.2
20260507193303 66 170 0.0 3.0 0.00 0.00 0.00 47 1013.3
20260507191802 66 186 0.0 3.0 0.00 0.00 0.00 44 1013.4
20260507191303 67 174 0.0 2.0 0.00 0.00 0.00 47 1013.4
20260507190803 67 169 0.0 3.0 0.00 0.00 0.00 45 1013.3
20260507190303 66 186 0.0 2.0 0.00 0.00 0.00 48 1013.4
20260507184302 66 213 0.0 0.0 0.00 0.00 0.00 45 1013.5
20260507183302 66 220 0.0 2.0 0.00 0.00 0.00 43 1013.7
20260507181303 67 173 0.0 3.0 0.00 0.00 0.00 42 1013.9
20260507180803 67 219 1.0 3.0 0.00 0.00 0.00 46 1013.9
20260507180303 67 216 0.0 6.0 0.00 0.00 0.00 43 1014.0
20260507174802 68 213 0.0 0.0 0.00 0.00 0.00 42 1014.2
20260507174302 66 227 0.0 0.0 0.00 0.00 0.00 46 1014.3
20260507173803 67 315 0.0 3.0 0.00 0.00 0.00 41 1014.4
20260507173302 67 228 0.0 1.0 0.00 0.00 0.00 43 1014.4
20260507171803 66 222 1.0 5.0 0.00 0.00 0.00 44 1014.6
20260507171303 66 258 0.0 2.0 0.00 0.00 0.00 47 1014.7
20260507170803 66 217 0.0 3.0 0.00 0.00 0.00 45 1014.8
20260507170303 65 215 0.0 3.0 0.00 0.00 0.00 45 1014.8
20260507164803 65 187 0.0 0.0 0.00 0.00 0.00 42 1015.1
20260507164303 64 204 0.0 1.0 0.00 0.00 0.00 46 1015.2
20260507163803 64 196 0.0 0.0 0.00 0.00 0.00 49 1015.1
20260507163302 64 231 0.0 1.0 0.00 0.00 0.00 45 1015.2
20260507161303 62 194 0.0 2.0 0.00 0.00 0.00 51 1015.4
20260507160803 62 197 0.0 5.0 0.00 0.00 0.00 50 1015.4
20260507160302 61 184 0.0 1.0 0.00 0.00 0.00 51 1015.5
20260507154803 61 181 0.0 3.0 0.00 0.00 0.00 51 1015.6
20260507154303 60 169 0.0 3.0 0.00 0.00 0.00 56 1015.6
20260507153803 60 224 0.0 3.0 0.00 0.00 0.00 53 1015.5
20260507153303 60 233 0.0 1.0 0.00 0.00 0.00 49 1015.6
20260507151803 59 178 0.0 3.0 0.00 0.00 0.00 56 1015.8
20260507150802 58 202 0.0 0.0 0.00 0.00 0.00 56 1015.8
20260507144803 56 177 0.0 3.0 0.00 0.00 0.00 61 1016.0
20260507144302 56 179 0.0 2.0 0.00 0.00 0.00 61 1015.9
20260507143802 56 156 0.0 3.0 0.00 0.00 0.00 61 1015.9
20260507143302 55 137 0.0 2.0 0.00 0.00 0.00 65 1015.9
20260507141803 54 153 0.0 5.0 0.00 0.00 0.00 67 1016.1
20260507141302 53 146 0.0 1.0 0.00 0.00 0.00 70 1016.1
20260507140303 52 151 0.0 0.0 0.00 0.00 0.00 74 1016.3
20260507134803 50 151 0.0 0.0 0.00 0.00 0.00 75 1016.4
20260507134303 50 148 0.0 0.0 0.00 0.00 0.00 77 1016.5
20260507133803 49 148 0.0 0.0 0.00 0.00 0.00 80 1016.5
20260507133303 48 8 0.0 1.0 0.00 0.00 0.00 81 1016.6
20260507131303 45 355 0.0 0.0 0.00 0.00 0.00 89 1016.8
20260507130803 44 355 0.0 0.0 0.00 0.00 0.00 90 1016.8
20260507130303 44 355 0.0 0.0 0.00 0.00 0.00 91 1016.9
20260507124803 42 355 0.0 0.0 0.00 0.00 0.00 93 1016.8
20260507123803 41 355 0.0 0.0 0.00 0.00 0.00 93 1016.6
20260507123303 41 355 0.0 0.0 0.00 0.00 0.00 93 1016.6
20260507121303 40 355 0.0 0.0 0.00 0.00 0.00 93 1016.4
20260507120803 40 355 0.0 0.0 0.00 0.00 0.00 93 1016.3
20260507120302 39 355 0.0 0.0 0.00 0.00 0.00 92 1016.3
20260507114803 39 355 0.0 0.0 0.00 0.00 0.00 93 1016.2
20260507114303 39 355 0.0 0.0 0.00 0.00 0.00 93 1016.2
20260507113803 39 355 0.0 0.0 0.00 0.00 0.00 93 1016.1
20260507113302 39 355 0.0 0.0 0.00 0.00 0.00 92 1016.0
20260507111803 39 355 0.0 0.0 0.00 0.00 0.00 92 1016.0
20260507111303 39 355 0.0 0.0 0.00 0.00 0.00 92 1015.9
20260507110803 39 355 0.0 0.0 0.00 0.00 0.00 91 1015.9
20260507110303 39 355 0.0 0.0 0.00 0.00 0.00 91 1015.9
20260507104803 39 355 0.0 0.0 0.00 0.01 0.00 92 1015.8
20260507103803 40 355 0.0 0.0 0.00 0.01 0.00 92 1015.8
20260507103303 40 355 0.0 0.0 0.00 0.01 0.00 92 1015.8
20260507101303 40 355 0.0 0.0 0.00 0.01 0.00 91 1015.8
20260507100803 40 355 0.0 0.0 0.00 0.01 0.00 91 1015.8
20260507100303 40 355 0.0 0.0 0.00 0.01 0.00 91 1015.8
20260507094803 40 355 0.0 0.0 0.00 0.01 0.00 91 1015.8
20260507094302 40 355 0.0 0.0 0.00 0.01 0.00 91 1015.7
20260507093803 40 355 0.0 0.0 0.00 0.01 0.00 91 1015.7
20260507093305 40 355 0.0 0.0 0.00 0.01 0.00 92 1015.8
20260507091803 40 355 0.0 0.0 0.00 0.01 0.00 91 1015.8
20260507090303 41 355 0.0 0.0 0.00 0.01 0.00 92 1015.7
20260507084803 41 355 0.0 0.0 0.00 0.01 0.00 92 1015.7
20260507084303 41 355 0.0 0.0 0.00 0.01 0.00 92 1015.6
20260507083803 41 355 0.0 0.0 0.00 0.02 0.00 92 1015.7
20260507083303 40 355 0.0 0.0 0.00 0.02 0.00 92 1015.8
20260507081803 40 355 0.0 0.0 0.00 0.02 0.00 92 1016.0